Weather History for KBAZ - September, 2013

Change the Weather History Date:

Friday, September 13, 2013

  Actual Average (KSAT) Record (KSAT)
Temperature  
Mean Temperature 84 °F 80 °F  
Max Temperature 97 °F 91 °F 100 °F (1912)
Min Temperature 70 °F 70 °F 55 °F (1892)
Degree Days  
Heating Degree Days 0 0  
Month to date heating degree days 0  
Since 1 July heating degree days 0  
Cooling Degree Days 18 16  
Month to date cooling degree days 223  
Year to date cooling degree days 2614  
Growing Degree Days 34 (Base 50)    
Moisture  
Dew Point 64 °F    
Average Humidity 60    
Maximum Humidity 97    
Minimum Humidity 28    
Precipitation  
Precipitation 0.00 in 0.10 in 5.13 in (1978)
Month to date precipitation 1.40  
Year to date precipitation 22.34  
Snow  
Snow 0.00 in - - ()
Month to date snowfall  
Since 1 July snowfall  
Since 1 September snowfall  
Snow Depth -    
Sea Level Pressure  
Sea Level Pressure 29.88 in    
Wind  
Wind Speed 5 mph (ESE)    
Max Wind Speed 14 mph    
Max Gust Speed 20 mph    
Visibility 10 miles    
Events      
T = Trace of Precipitation, MM = Missing Value Source: NWS Daily Summary

Daily Weather History Graph

Daily Weather History Graph

Search for Another Location

Airport or City:

Trip Planner

Search our weather history database for the weather conditions in past years. The results will help you decide how hot, cold, wet, or windy it might be!

Date:

Astronomy

Sep. 13, 2013 Rise Set
Actual Time 7:15 AM CDT 7:39 PM CDT
Civil Twilight 6:51 AM CDT 8:03 PM CDT
Nautical Twilight 6:23 AM CDT 8:31 PM CDT
Astronomical Twilight 5:55 AM CDT 8:59 PM CDT
Moon 3:12 PM CDT (9/13) 1:05 AM CDT (9/13)
Length of Visible Light 13h 11m
Length of Day
12h 23m
First Quarter, 61% of the Moon is Illuminated
Sep 13
First Quarter
Sep 19
Full
Sep 26
Last Quarter
Oct 4
New
Oct 11
First Quarter

Hourly Weather History & Observations

Time (CDT) Temp. Heat Index Dew Point Humidity Pressure Visibility Wind Dir Wind Speed Gust Speed Precip Events Conditions
12:51 AM 75.0 °F - 70.0 °F 84% 29.94 in 10.0 mi Calm Calm - N/A   Mostly Cloudy
1:51 AM 73.0 °F - 70.0 °F 90% 29.94 in 10.0 mi West 3.5 mph - N/A   Partly Cloudy
2:51 AM 73.0 °F - 69.1 °F 87% 29.93 in 10.0 mi WNW 3.5 mph - N/A   Mostly Cloudy
3:51 AM 72.0 °F - 69.1 °F 91% 29.92 in 10.0 mi NW 5.8 mph - N/A   Partly Cloudy
4:51 AM 70.0 °F - 69.1 °F 97% 29.91 in 10.0 mi NW 5.8 mph - N/A   Mostly Cloudy
5:51 AM 70.0 °F - 68.0 °F 93% 29.91 in 10.0 mi NNW 3.5 mph - N/A   Clear
6:51 AM 70.0 °F - 68.0 °F 93% 29.92 in 10.0 mi Calm Calm - N/A   Clear
7:51 AM 70.0 °F - 68.0 °F 93% 29.93 in 9.0 mi North 4.6 mph - N/A   Clear
8:51 AM 78.1 °F - 71.1 °F 79% 29.93 in 10.0 mi NNE 4.6 mph - N/A   Clear
9:51 AM 84.9 °F 86.6 °F 64.9 °F 51% 29.94 in 10.0 mi NE 6.9 mph - N/A   Clear
10:51 AM 88.0 °F 88.4 °F 62.1 °F 42% 29.94 in 10.0 mi East 9.2 mph - N/A   Scattered Clouds
11:51 AM 91.0 °F 90.9 °F 61.0 °F 36% 29.92 in 10.0 mi East 8.1 mph - N/A   Partly Cloudy
12:51 PM 93.0 °F 93.0 °F 61.0 °F 34% 29.90 in 10.0 mi SE 5.8 mph - N/A   Scattered Clouds
1:51 PM 93.0 °F 92.7 °F 60.1 °F 33% 29.87 in 10.0 mi East 11.5 mph 17.3 mph N/A   Scattered Clouds
2:51 PM 96.1 °F 95.2 °F 57.9 °F 28% 29.84 in 10.0 mi SE 11.5 mph 19.6 mph N/A   Mostly Cloudy
3:51 PM 97.0 °F 96.5 °F 59.0 °F 28% 29.81 in 10.0 mi ESE 10.4 mph - N/A   Scattered Clouds
4:51 PM 95.0 °F 93.7 °F 57.0 °F 28% 29.80 in 10.0 mi East 12.7 mph 18.4 mph N/A   Mostly Cloudy
5:51 PM 93.9 °F 92.2 °F 55.9 °F 28% 29.78 in 10.0 mi ESE 10.4 mph - N/A   Partly Cloudy
6:51 PM 91.9 °F 90.8 °F 57.9 °F 32% 29.79 in 10.0 mi SSE 13.8 mph - N/A   Partly Cloudy
7:51 PM 84.9 °F 84.4 °F 59.0 °F 41% 29.80 in 10.0 mi SE 9.2 mph - N/A   Clear
8:51 PM 81.0 °F 81.7 °F 61.0 °F 50% 29.82 in 10.0 mi SSE 5.8 mph - N/A   Clear
9:51 PM 81.0 °F 82.2 °F 63.0 °F 54% 29.84 in 10.0 mi SSE 9.2 mph - N/A   Clear
10:51 PM 79.0 °F - 66.9 °F 66% 29.85 in 10.0 mi South 6.9 mph - N/A   Clear
11:51 PM 75.9 °F - 66.9 °F 74% 29.86 in 10.0 mi SSW 4.6 mph - N/A   Clear